RWD211 FKKD-HRYR

Flight info

Callsign RWD211
Flight time 4h 7m
Altitude 35000
Route NLY UR984 BT UQ583 SOLVI DCT ASKON/N0457F370 DCT OVELA UB527 ASEKA/N0456F380 UB527 EGREK EGREK1B
Aircraft B738/M-SDGIJ1LRWY/SB1

Departure

Time 2026-05-07 07:09
Airport Douala International Airport (FKKD)

Arrival

Time 2026-05-07 11:16
Airport Kigali International Airport (HRYR)
Time Latitude Longitude Altitude Speed Heading
2026-05-07 06:44 4.01128 9.71682 52 ft 0 kts 116°
2026-05-07 06:59 4.01129 9.71681 52 ft 1 kts 116°
2026-05-07 06:59 4.01135 9.71668 51 ft 2 kts 116°
2026-05-07 06:59 4.01143 9.71655 51 ft 2 kts 137°
2026-05-07 07:00 4.01156 9.71647 50 ft 2 kts 163°
2026-05-07 07:00 4.01171 9.71645 50 ft 2 kts 191°
2026-05-07 07:00 4.01179 9.71648 50 ft 1 kts 206°
2026-05-07 07:00 4.01185 9.71651 50 ft 0 kts 207°
2026-05-07 07:06 4.01183 9.71650 50 ft 1 kts 207°
2026-05-07 07:06 4.01147 9.71632 50 ft 8 kts 207°
2026-05-07 07:06 4.01083 9.71602 52 ft 10 kts 202°
2026-05-07 07:06 4.01010 9.71571 54 ft 10 kts 221°
2026-05-07 07:07 4.01022 9.71497 49 ft 14 kts 297°
2026-05-07 07:07 4.01059 9.71400 40 ft 14 kts 255°
2026-05-07 07:07 4.01003 9.71353 40 ft 9 kts 203°
2026-05-07 07:07 4.00947 9.71324 41 ft 8 kts 205°
2026-05-07 07:08 4.00914 9.71344 42 ft 4 kts 118°
2026-05-07 07:08 4.00904 9.71361 43 ft 4 kts 118°
2026-05-07 07:08 4.00822 9.71526 53 ft 57 kts 116°
2026-05-07 07:08 4.00535 9.72092 40 ft 125 kts 116°
2026-05-07 07:09 4.00049 9.73053 110 ft 172 kts 116°
2026-05-07 07:09 3.99477 9.74169 553 ft 192 kts 117°
2026-05-07 07:09 3.98861 9.75387 1243 ft 200 kts 116°
2026-05-07 07:09 3.98214 9.76689 1751 ft 217 kts 117°
2026-05-07 07:10 3.97532 9.78040 2321 ft 225 kts 117°
2026-05-07 07:10 3.96807 9.79478 2750 ft 239 kts 116°
2026-05-07 07:10 3.96301 9.81138 3166 ft 256 kts 95°
2026-05-07 07:10 3.96381 9.82944 3684 ft 267 kts 82°
2026-05-07 07:11 3.96654 9.84809 4307 ft 273 kts 81°
2026-05-07 07:11 3.96910 9.86686 4988 ft 277 kts 82°
2026-05-07 07:11 3.97126 9.88604 5728 ft 278 kts 83°
2026-05-07 07:11 3.97312 9.90508 6440 ft 279 kts 83°
2026-05-07 07:12 3.97490 9.92420 7243 ft 276 kts 83°
2026-05-07 07:12 3.97664 9.94319 8034 ft 272 kts 82°
2026-05-07 07:12 3.97837 9.96182 8790 ft 270 kts 82°
2026-05-07 07:12 3.98009 9.98023 9485 ft 269 kts 81°
2026-05-07 07:13 3.98188 9.99905 10121 ft 271 kts 81°
2026-05-07 07:13 3.98373 10.01824 10497 ft 284 kts 82°
2026-05-07 07:13 3.98566 10.03835 10839 ft 297 kts 82°
2026-05-07 07:13 3.98767 10.05933 11154 ft 310 kts 82°
2026-05-07 07:14 3.98977 10.08143 11484 ft 322 kts 83°
2026-05-07 07:14 3.99188 10.10376 12079 ft 325 kts 83°
2026-05-07 07:14 3.99399 10.12616 12739 ft 326 kts 83°
2026-05-07 07:14 3.99614 10.14859 13421 ft 326 kts 83°
2026-05-07 07:15 3.99834 10.17144 13944 ft 332 kts 83°
2026-05-07 07:15 4.00053 10.19434 14506 ft 336 kts 83°
2026-05-07 07:15 4.00276 10.21781 15070 ft 340 kts 83°
2026-05-07 07:15 4.00500 10.24154 15629 ft 344 kts 83°
2026-05-07 07:16 4.00726 10.26546 16158 ft 349 kts 83°
2026-05-07 07:16 4.00955 10.28967 16689 ft 353 kts 84°
2026-05-07 07:16 4.01185 10.31401 17245 ft 355 kts 84°
2026-05-07 07:16 4.01418 10.33857 17719 ft 359 kts 84°
2026-05-07 07:17 4.01657 10.36393 18150 ft 365 kts 84°
2026-05-07 07:17 4.01895 10.38918 18654 ft 368 kts 84°
2026-05-07 07:17 4.02136 10.41487 19087 ft 372 kts 84°
2026-05-07 07:17 4.02378 10.44067 19538 ft 376 kts 84°
2026-05-07 07:18 4.02622 10.46676 20033 ft 378 kts 84°
2026-05-07 07:18 4.02865 10.49268 20456 ft 381 kts 84°
2026-05-07 07:18 4.03114 10.51922 20897 ft 384 kts 84°
2026-05-07 07:18 4.03364 10.54586 21305 ft 388 kts 84°
2026-05-07 07:19 4.03618 10.57287 21706 ft 391 kts 84°
2026-05-07 07:19 4.03872 10.60007 22122 ft 394 kts 84°
2026-05-07 07:19 4.04129 10.62753 22539 ft 396 kts 84°
2026-05-07 07:19 4.04382 10.65475 22954 ft 399 kts 84°
2026-05-07 07:20 4.04641 10.68242 23340 ft 403 kts 84°
2026-05-07 07:20 4.04903 10.71047 23726 ft 406 kts 84°
2026-05-07 07:20 4.05168 10.73880 24217 ft 406 kts 84°
2026-05-07 07:20 4.05422 10.76690 24553 ft 411 kts 85°
2026-05-07 07:21 4.05501 10.79541 25041 ft 411 kts 90°
2026-05-07 07:21 4.05184 10.82406 25388 ft 417 kts 99°
2026-05-07 07:21 4.04381 10.85212 25739 ft 422 kts 107°
2026-05-07 07:21 4.03301 10.87939 26100 ft 426 kts 110°
2026-05-07 07:22 4.02085 10.90674 26449 ft 429 kts 111°
2026-05-07 07:22 4.00838 10.93359 26767 ft 433 kts 112°
2026-05-07 07:22 3.99555 10.96093 27118 ft 435 kts 112°
2026-05-07 07:22 3.98269 10.98842 27429 ft 438 kts 111°
2026-05-07 07:23 3.96983 11.01615 27762 ft 441 kts 111°
2026-05-07 07:23 3.95691 11.04418 28103 ft 443 kts 111°
2026-05-07 07:23 3.94416 11.07206 28466 ft 444 kts 111°
2026-05-07 07:23 3.93130 11.10033 28772 ft 447 kts 111°
2026-05-07 07:24 3.91843 11.12871 29133 ft 448 kts 111°
2026-05-07 07:24 3.90568 11.15691 29462 ft 450 kts 111°
2026-05-07 07:24 3.89266 11.18574 29907 ft 449 kts 111°
2026-05-07 07:24 3.87987 11.21407 30433 ft 446 kts 111°
2026-05-07 07:25 3.85447 11.27036 31261 ft 444 kts 111°
2026-05-07 07:25 3.84184 11.29838 31640 ft 444 kts 111°
2026-05-07 07:25 3.82921 11.32637 32005 ft 443 kts 111°
2026-05-07 07:26 3.81654 11.35448 32389 ft 442 kts 111°
2026-05-07 07:26 3.80389 11.38255 32749 ft 441 kts 111°
2026-05-07 07:26 3.79137 11.41032 33163 ft 440 kts 111°
2026-05-07 07:26 3.77881 11.43818 33569 ft 438 kts 111°
2026-05-07 07:27 3.76629 11.46594 33943 ft 438 kts 111°
2026-05-07 07:27 3.75382 11.49360 34271 ft 437 kts 111°
2026-05-07 07:27 3.74190 11.52149 34628 ft 435 kts 107°
2026-05-07 07:27 3.73291 11.54990 34992 ft 430 kts 101°
2026-05-07 07:28 3.72876 11.57948 35018 ft 429 kts 89°
2026-05-07 07:28 3.73311 11.63866 35021 ft 424 kts 81°
2026-05-07 07:29 3.74121 11.69714 35020 ft 424 kts 80°
2026-05-07 07:29 3.74934 11.75558 35021 ft 424 kts 81°
2026-05-07 07:30 3.75690 11.81370 35018 ft 423 kts 81°
2026-05-07 07:30 3.76417 11.87209 35013 ft 423 kts 81°
2026-05-07 07:31 3.77132 11.93059 35008 ft 423 kts 81°
2026-05-07 07:31 3.77838 11.98875 35007 ft 423 kts 81°
2026-05-07 07:32 3.78547 12.04728 35007 ft 424 kts 81°
2026-05-07 07:32 3.79252 12.10555 35009 ft 424 kts 81°
2026-05-07 07:33 3.79964 12.16429 35012 ft 424 kts 81°
2026-05-07 07:33 3.80670 12.22273 35014 ft 424 kts 81°
2026-05-07 07:34 3.81376 12.28115 35023 ft 425 kts 81°
2026-05-07 07:34 3.82082 12.33965 35028 ft 426 kts 81°
2026-05-07 07:35 3.82790 12.39829 35033 ft 426 kts 81°
2026-05-07 07:35 3.83500 12.45710 35037 ft 426 kts 81°
2026-05-07 07:36 3.84211 12.51609 35033 ft 426 kts 81°
2026-05-07 07:36 3.84919 12.57490 35027 ft 426 kts 81°
2026-05-07 07:37 3.85631 12.63396 35024 ft 427 kts 81°
2026-05-07 07:37 3.86340 12.69286 35024 ft 427 kts 81°
2026-05-07 07:38 3.87049 12.75174 35020 ft 427 kts 81°
2026-05-07 07:38 3.87757 12.81061 35023 ft 427 kts 81°
2026-05-07 07:39 3.88467 12.86974 35027 ft 428 kts 81°
2026-05-07 07:39 3.89176 12.92871 35037 ft 428 kts 81°
2026-05-07 07:40 3.89886 12.98779 35037 ft 429 kts 81°
2026-05-07 07:40 3.90593 13.04680 35036 ft 429 kts 81°
2026-05-07 07:41 3.91304 13.10608 35039 ft 429 kts 81°
2026-05-07 07:41 3.92009 13.16500 35039 ft 428 kts 81°
2026-05-07 07:42 3.92717 13.22403 35043 ft 429 kts 81°
2026-05-07 07:42 3.93424 13.28314 35045 ft 429 kts 81°
2026-05-07 07:43 3.94134 13.34248 35046 ft 429 kts 81°
2026-05-07 07:43 3.94841 13.40167 35045 ft 429 kts 81°
2026-05-07 07:44 3.95549 13.46090 35049 ft 429 kts 81°
2026-05-07 07:44 3.96254 13.52000 35050 ft 429 kts 81°
2026-05-07 07:45 3.96958 13.57895 35052 ft 430 kts 81°
2026-05-07 07:45 3.97669 13.63852 35052 ft 430 kts 81°
2026-05-07 07:46 3.98376 13.69785 35053 ft 429 kts 81°
2026-05-07 07:46 3.99077 13.75678 35053 ft 429 kts 81°
2026-05-07 07:47 3.99786 13.81635 35053 ft 430 kts 81°
2026-05-07 07:47 4.00489 13.87545 35050 ft 430 kts 81°
2026-05-07 07:48 4.01194 13.93470 35049 ft 430 kts 81°
2026-05-07 07:48 4.01901 13.99419 35050 ft 431 kts 81°
2026-05-07 07:49 4.02608 14.05370 35044 ft 430 kts 81°
2026-05-07 07:49 4.03305 14.11253 35043 ft 428 kts 81°
2026-05-07 07:50 4.04009 14.17177 35038 ft 429 kts 81°
2026-05-07 07:50 4.04708 14.23080 35028 ft 429 kts 81°
2026-05-07 07:51 4.05413 14.29031 35023 ft 429 kts 81°
2026-05-07 07:51 4.06112 14.34936 35017 ft 429 kts 81°
2026-05-07 07:52 4.06814 14.40871 35017 ft 428 kts 81°
2026-05-07 07:52 4.07511 14.46763 35018 ft 428 kts 81°
2026-05-07 07:53 4.08207 14.52653 35016 ft 428 kts 81°
2026-05-07 07:53 4.08903 14.58550 35016 ft 429 kts 81°
2026-05-07 07:54 4.09604 14.64482 35016 ft 428 kts 81°
2026-05-07 07:54 4.10298 14.70372 35015 ft 427 kts 81°
2026-05-07 07:55 4.10993 14.76269 35014 ft 428 kts 81°
2026-05-07 07:55 4.11688 14.82175 35015 ft 427 kts 81°
2026-05-07 07:56 4.12381 14.88067 35014 ft 428 kts 81°
2026-05-07 07:56 4.13077 14.93989 35014 ft 428 kts 81°
2026-05-07 07:57 4.13766 14.99855 35014 ft 426 kts 81°
2026-05-07 07:57 4.14461 15.05771 35013 ft 426 kts 81°
2026-05-07 07:58 4.15154 15.11666 35013 ft 427 kts 81°
2026-05-07 07:58 4.15845 15.17547 35011 ft 428 kts 81°
2026-05-07 07:59 4.16535 15.23444 35010 ft 427 kts 81°
2026-05-07 07:59 4.17228 15.29356 35009 ft 427 kts 80°
2026-05-07 08:00 4.17916 15.35232 35007 ft 428 kts 80°
2026-05-07 08:00 4.18608 15.41156 35007 ft 428 kts 80°
2026-05-07 08:01 4.19298 15.47075 35006 ft 428 kts 80°
2026-05-07 08:01 4.19987 15.52985 35006 ft 429 kts 80°
2026-05-07 08:02 4.20672 15.58869 35008 ft 428 kts 80°
2026-05-07 08:02 4.21362 15.64793 35006 ft 428 kts 80°
2026-05-07 08:03 4.22052 15.70723 35004 ft 429 kts 81°
2026-05-07 08:03 4.22771 15.76600 35003 ft 427 kts 78°
2026-05-07 08:04 4.24078 15.82389 35003 ft 425 kts 71°
2026-05-07 08:04 4.25772 15.88035 35002 ft 425 kts 70°
2026-05-07 08:05 4.27539 15.93679 35002 ft 424 kts 70°
2026-05-07 08:05 4.29287 15.99311 35001 ft 425 kts 70°
2026-05-07 08:06 4.31014 16.04945 34998 ft 424 kts 70°
2026-05-07 08:06 4.32735 16.10593 34996 ft 424 kts 70°
2026-05-07 08:07 4.34460 16.16267 34993 ft 425 kts 70°
2026-05-07 08:07 4.36166 16.21894 34994 ft 425 kts 70°
2026-05-07 08:08 4.37887 16.27567 34997 ft 425 kts 70°
2026-05-07 08:08 4.39608 16.33244 35001 ft 426 kts 70°
2026-05-07 08:09 4.41324 16.38906 35004 ft 426 kts 70°
2026-05-07 08:09 4.43035 16.44554 35010 ft 426 kts 70°
2026-05-07 08:10 4.44752 16.50224 35013 ft 426 kts 70°
2026-05-07 08:10 4.46467 16.55894 35009 ft 425 kts 70°
2026-05-07 08:11 4.48175 16.61532 35010 ft 427 kts 70°
2026-05-07 08:11 4.49897 16.67223 35006 ft 427 kts 70°
2026-05-07 08:12 4.51618 16.72914 35013 ft 426 kts 70°
2026-05-07 08:12 4.53330 16.78579 35015 ft 426 kts 70°
2026-05-07 08:13 4.55054 16.84278 35016 ft 427 kts 70°
2026-05-07 08:13 4.56766 16.89939 35014 ft 426 kts 71°
2026-05-07 08:14 4.58487 16.95635 35014 ft 427 kts 70°
2026-05-07 08:14 4.60194 17.01286 35014 ft 427 kts 70°
2026-05-07 08:15 4.61994 17.06945 35016 ft 426 kts 66°
2026-05-07 08:15 4.64391 17.12387 35020 ft 425 kts 62°
2026-05-07 08:16 4.67033 17.17658 35021 ft 424 kts 61°
2026-05-07 08:16 4.69707 17.22922 35023 ft 425 kts 61°
2026-05-07 08:17 4.72364 17.28202 35024 ft 425 kts 61°
2026-05-07 08:17 4.75009 17.33499 35022 ft 424 kts 61°
2026-05-07 08:18 4.77635 17.38779 35022 ft 425 kts 61°
2026-05-07 08:18 4.80259 17.44067 35021 ft 425 kts 61°
2026-05-07 08:19 4.82887 17.49365 35018 ft 425 kts 61°
2026-05-07 08:19 4.85513 17.54661 35017 ft 426 kts 61°
2026-05-07 08:20 4.88153 17.59984 35011 ft 426 kts 61°
2026-05-07 08:20 4.90776 17.65276 35007 ft 426 kts 61°
2026-05-07 08:21 4.93409 17.70589 35005 ft 427 kts 61°
2026-05-07 08:21 4.96059 17.75938 35003 ft 427 kts 61°
2026-05-07 08:22 4.98701 17.81273 35005 ft 427 kts 61°
2026-05-07 08:22 5.01345 17.86613 35002 ft 428 kts 61°
2026-05-07 08:23 5.03969 17.91917 35000 ft 428 kts 61°
2026-05-07 08:23 5.06607 17.97248 35000 ft 427 kts 61°
2026-05-07 08:24 5.09253 18.02589 34995 ft 429 kts 61°
2026-05-07 08:24 5.11895 18.07933 34990 ft 428 kts 61°
2026-05-07 08:25 5.14530 18.13272 34987 ft 428 kts 62°
2026-05-07 08:25 5.16653 18.18856 34987 ft 431 kts 72°
2026-05-07 08:26 5.18278 18.27763 34985 ft 434 kts 79°
2026-05-07 08:26 5.19089 18.33765 34983 ft 435 kts 79°
2026-05-07 08:27 5.19899 18.39740 34980 ft 435 kts 79°
2026-05-07 08:27 5.20728 18.45714 34980 ft 434 kts 79°
2026-05-07 08:28 5.21577 18.51722 34979 ft 434 kts 79°
2026-05-07 08:28 5.22430 18.57696 34971 ft 434 kts 79°
2026-05-07 08:29 5.23286 18.63685 34963 ft 435 kts 79°
2026-05-07 08:29 5.24141 18.69659 34957 ft 436 kts 79°
2026-05-07 08:30 5.25006 18.75696 34947 ft 436 kts 79°
2026-05-07 08:30 5.25860 18.81662 34951 ft 436 kts 79°
2026-05-07 08:31 5.26723 18.87699 34951 ft 435 kts 79°
2026-05-07 08:31 5.27577 18.93678 34946 ft 436 kts 79°
2026-05-07 08:32 5.28439 18.99716 34943 ft 435 kts 79°
2026-05-07 08:32 5.29292 19.05684 34952 ft 436 kts 79°
2026-05-07 08:33 5.30147 19.11688 34965 ft 436 kts 79°
2026-05-07 08:33 5.31007 19.17728 34968 ft 437 kts 79°
2026-05-07 08:34 5.31862 19.23738 34970 ft 437 kts 79°
2026-05-07 08:34 5.32719 19.29764 34972 ft 437 kts 79°
2026-05-07 08:35 5.33571 19.35767 34974 ft 436 kts 79°
2026-05-07 08:35 5.34424 19.41783 34972 ft 436 kts 79°
2026-05-07 08:36 5.35280 19.47798 34975 ft 439 kts 79°
2026-05-07 08:36 5.36135 19.53828 34975 ft 438 kts 79°
2026-05-07 08:37 5.36994 19.59896 34975 ft 438 kts 79°
2026-05-07 08:37 5.37850 19.65945 34972 ft 438 kts 79°
2026-05-07 08:38 5.38704 19.71969 34969 ft 439 kts 79°
2026-05-07 08:38 5.39563 19.78029 34969 ft 439 kts 79°
2026-05-07 08:39 5.40415 19.84061 34969 ft 439 kts 79°
2026-05-07 08:39 5.41267 19.90099 34969 ft 439 kts 79°
2026-05-07 08:40 5.42123 19.96168 34969 ft 440 kts 79°
2026-05-07 08:40 5.42979 20.02226 34971 ft 438 kts 80°
2026-05-07 08:41 5.43831 20.08278 34973 ft 439 kts 80°
2026-05-07 08:41 5.44680 20.14318 34974 ft 438 kts 80°
2026-05-07 08:42 5.45529 20.20345 34977 ft 439 kts 79°
2026-05-07 08:42 5.46381 20.26399 34978 ft 440 kts 80°
2026-05-07 08:43 5.47236 20.32483 34982 ft 440 kts 80°
2026-05-07 08:43 5.48084 20.38517 34982 ft 440 kts 80°
2026-05-07 08:44 5.48933 20.44578 34980 ft 440 kts 80°
2026-05-07 08:44 5.49786 20.50652 34982 ft 439 kts 81°
2026-05-07 08:45 5.50635 20.56714 34983 ft 439 kts 81°
2026-05-07 08:45 5.51479 20.62743 34983 ft 438 kts 81°
2026-05-07 08:46 5.52325 20.68783 34985 ft 438 kts 81°
2026-05-07 08:46 5.53173 20.74840 34986 ft 438 kts 81°
2026-05-07 08:47 5.54017 20.80881 34990 ft 439 kts 81°
2026-05-07 08:47 5.54861 20.86931 34994 ft 438 kts 81°
2026-05-07 08:48 5.55703 20.92972 35001 ft 436 kts 81°
2026-05-07 08:48 5.56537 20.98968 35007 ft 435 kts 81°
2026-05-07 08:49 5.57375 21.04991 35008 ft 436 kts 81°
2026-05-07 08:49 5.58213 21.11021 35012 ft 437 kts 81°
2026-05-07 08:50 5.59049 21.17027 35012 ft 438 kts 81°
2026-05-07 08:50 5.59890 21.23072 35012 ft 438 kts 81°
2026-05-07 08:51 5.60726 21.29090 35017 ft 437 kts 81°
2026-05-07 08:51 5.61566 21.35141 35014 ft 437 kts 81°
2026-05-07 08:52 5.62405 21.41182 35015 ft 438 kts 81°
2026-05-07 08:52 5.63241 21.47220 35014 ft 438 kts 81°
2026-05-07 08:53 5.64075 21.53246 35020 ft 437 kts 82°
2026-05-07 08:53 5.64910 21.59277 35014 ft 437 kts 81°
2026-05-07 08:54 5.65744 21.65315 35014 ft 438 kts 81°
2026-05-07 08:54 5.66575 21.71341 35019 ft 438 kts 82°
2026-05-07 08:55 5.67411 21.77402 35019 ft 438 kts 82°
2026-05-07 08:55 5.68238 21.83402 35020 ft 437 kts 81°
2026-05-07 08:56 5.69072 21.89462 35020 ft 437 kts 81°
2026-05-07 08:56 5.69901 21.95477 35028 ft 438 kts 82°
2026-05-07 08:57 5.70732 22.01519 35028 ft 439 kts 82°
2026-05-07 08:57 5.71570 22.07614 35025 ft 440 kts 82°
2026-05-07 08:58 5.72405 22.13688 35027 ft 439 kts 82°
2026-05-07 08:58 5.73236 22.19743 35026 ft 441 kts 82°
2026-05-07 08:59 5.74071 22.25826 35026 ft 442 kts 82°
2026-05-07 08:59 5.74905 22.31921 35023 ft 441 kts 82°
2026-05-07 09:00 5.75740 22.38021 35022 ft 442 kts 82°
2026-05-07 09:00 5.76574 22.44118 35023 ft 442 kts 82°
2026-05-07 09:01 5.77409 22.50225 35022 ft 444 kts 83°
2026-05-07 09:01 5.78242 22.56321 35023 ft 443 kts 83°
2026-05-07 09:02 5.79080 22.62463 35022 ft 443 kts 83°
2026-05-07 09:02 5.79910 22.68564 35030 ft 443 kts 83°
2026-05-07 09:03 5.80743 22.74672 35043 ft 443 kts 83°
2026-05-07 09:03 5.81578 22.80804 35043 ft 442 kts 83°
2026-05-07 09:04 5.82407 22.86898 35044 ft 442 kts 83°
2026-05-07 09:04 5.83234 22.92993 35045 ft 441 kts 83°
2026-05-07 09:05 5.84059 22.99066 35043 ft 441 kts 83°
2026-05-07 09:05 5.84886 23.05167 35041 ft 440 kts 83°
2026-05-07 09:06 5.85712 23.11268 35038 ft 442 kts 83°
2026-05-07 09:06 5.86537 23.17358 35024 ft 441 kts 83°
2026-05-07 09:07 5.87366 23.23481 35004 ft 443 kts 83°
2026-05-07 09:07 5.88192 23.29585 35005 ft 442 kts 83°
2026-05-07 09:08 5.89015 23.35674 35013 ft 441 kts 83°
2026-05-07 09:08 5.89839 23.41780 35013 ft 443 kts 83°
2026-05-07 09:09 5.90663 23.47888 35014 ft 443 kts 83°
2026-05-07 09:09 5.91492 23.54034 35014 ft 443 kts 83°
2026-05-07 09:10 5.92313 23.60130 35012 ft 443 kts 83°
2026-05-07 09:10 5.93135 23.66250 35016 ft 443 kts 83°
2026-05-07 09:11 5.93961 23.72383 35012 ft 443 kts 83°
2026-05-07 09:11 5.94781 23.78494 35020 ft 443 kts 83°
2026-05-07 09:12 5.95598 23.84581 35027 ft 444 kts 83°
2026-05-07 09:12 5.96422 23.90728 35029 ft 444 kts 83°
2026-05-07 09:13 5.97248 23.96897 35028 ft 445 kts 83°
2026-05-07 09:13 5.98070 24.03037 35028 ft 446 kts 83°
2026-05-07 09:14 5.98895 24.09200 35023 ft 446 kts 83°
2026-05-07 09:14 5.99716 24.15344 35024 ft 445 kts 83°
2026-05-07 09:15 6.00536 24.21486 35021 ft 444 kts 83°
2026-05-07 09:15 6.01354 24.27617 35022 ft 445 kts 83°
2026-05-07 09:16 6.02176 24.33781 35023 ft 445 kts 83°
2026-05-07 09:16 6.02995 24.39926 35025 ft 445 kts 83°
2026-05-07 09:17 6.03815 24.46090 35028 ft 447 kts 83°
2026-05-07 09:17 6.04633 24.52243 35029 ft 447 kts 83°
2026-05-07 09:18 6.05451 24.58396 35029 ft 445 kts 83°
2026-05-07 09:18 6.06271 24.64581 35023 ft 446 kts 83°
2026-05-07 09:19 6.07088 24.70739 35017 ft 445 kts 83°
2026-05-07 09:19 6.07899 24.76864 35008 ft 444 kts 83°
2026-05-07 09:20 6.08714 24.83021 35006 ft 445 kts 83°
2026-05-07 09:20 6.09526 24.89161 35006 ft 445 kts 83°
2026-05-07 09:21 6.10338 24.95308 35006 ft 446 kts 83°
2026-05-07 09:21 6.11156 25.01500 35005 ft 446 kts 83°
2026-05-07 09:22 6.11965 25.07640 35006 ft 445 kts 83°
2026-05-07 09:22 6.12779 25.13820 35005 ft 446 kts 83°
2026-05-07 09:23 6.13589 25.19970 35006 ft 445 kts 83°
2026-05-07 09:23 6.14397 25.26118 35006 ft 446 kts 83°
2026-05-07 09:24 6.15207 25.32281 35008 ft 444 kts 83°
2026-05-07 09:24 6.16014 25.38427 35009 ft 446 kts 83°
2026-05-07 09:25 6.16827 25.44626 35009 ft 446 kts 83°
2026-05-07 09:25 6.17635 25.50790 35009 ft 446 kts 83°
2026-05-07 09:26 6.18443 25.56966 35009 ft 445 kts 83°
2026-05-07 09:26 6.19248 25.63117 35011 ft 446 kts 83°
2026-05-07 09:27 6.20048 25.69240 35011 ft 444 kts 83°
2026-05-07 09:28 6.21254 25.78485 35013 ft 445 kts 83°
2026-05-07 09:28 6.22056 25.84627 35014 ft 446 kts 83°
2026-05-07 09:29 6.22859 25.90788 35016 ft 445 kts 83°
2026-05-07 09:29 6.23663 25.96963 35017 ft 446 kts 83°
2026-05-07 09:30 6.24462 26.03104 35018 ft 446 kts 83°
2026-05-07 09:30 6.25266 26.09293 35014 ft 446 kts 83°
2026-05-07 09:31 6.26062 26.15431 35000 ft 446 kts 83°
2026-05-07 09:31 6.26860 26.21587 34998 ft 445 kts 83°
2026-05-07 09:32 6.27658 26.27752 34997 ft 446 kts 83°
2026-05-07 09:32 6.28453 26.33898 35003 ft 445 kts 83°
2026-05-07 09:33 6.29075 26.40098 35008 ft 445 kts 91°
2026-05-07 09:33 6.28837 26.43153 35007 ft 442 kts 103°
2026-05-07 09:33 6.27974 26.46146 35017 ft 440 kts 112°
2026-05-07 09:34 6.25521 26.51737 35008 ft 439 kts 117°
2026-05-07 09:34 6.22850 26.57255 35010 ft 439 kts 118°
2026-05-07 09:35 6.20179 26.62767 35008 ft 438 kts 117°
2026-05-07 09:35 6.17543 26.68270 35014 ft 438 kts 117°
2026-05-07 09:36 6.14935 26.73766 35019 ft 438 kts 117°
2026-05-07 09:36 6.12322 26.79294 35019 ft 438 kts 117°
2026-05-07 09:37 6.09714 26.84820 35013 ft 437 kts 117°
2026-05-07 09:37 6.07113 26.90338 35009 ft 438 kts 117°
2026-05-07 09:38 6.04517 26.95840 35011 ft 437 kts 117°
2026-05-07 09:38 6.01932 27.01319 35008 ft 437 kts 117°
2026-05-07 09:39 5.99329 27.06836 35009 ft 436 kts 117°
2026-05-07 09:39 5.96743 27.12314 35009 ft 436 kts 116°
2026-05-07 09:40 5.94157 27.17790 35009 ft 435 kts 116°
2026-05-07 09:40 5.91554 27.23299 35010 ft 435 kts 117°
2026-05-07 09:41 5.88967 27.28775 35008 ft 436 kts 116°
2026-05-07 09:41 5.86374 27.34261 35006 ft 435 kts 116°
2026-05-07 09:42 5.83781 27.39742 35005 ft 434 kts 116°
2026-05-07 09:42 5.81209 27.45180 35005 ft 433 kts 116°
2026-05-07 09:43 5.78616 27.50664 35003 ft 434 kts 116°
2026-05-07 09:43 5.76025 27.56138 35004 ft 434 kts 116°
2026-05-07 09:44 5.73445 27.61589 35004 ft 434 kts 116°
2026-05-07 09:44 5.70868 27.67033 35005 ft 434 kts 116°
2026-05-07 09:45 5.68274 27.72511 35001 ft 433 kts 116°
2026-05-07 09:45 5.65700 27.77944 35001 ft 433 kts 116°
2026-05-07 09:46 5.63108 27.83414 35000 ft 433 kts 116°
2026-05-07 09:46 5.60540 27.88830 34997 ft 432 kts 116°
2026-05-07 09:47 5.57944 27.94305 34996 ft 433 kts 116°
2026-05-07 09:47 5.55368 27.99742 34995 ft 432 kts 116°
2026-05-07 09:48 5.52803 28.05152 34996 ft 431 kts 116°
2026-05-07 09:48 5.50217 28.10605 35003 ft 432 kts 116°
2026-05-07 09:49 5.47637 28.16040 35006 ft 432 kts 116°
2026-05-07 09:49 5.45051 28.21485 35014 ft 432 kts 116°
2026-05-07 09:50 5.42479 28.26898 35014 ft 432 kts 116°
2026-05-07 09:50 5.39898 28.32325 35011 ft 432 kts 116°
2026-05-07 09:51 5.37301 28.37792 35009 ft 432 kts 116°
2026-05-07 09:51 5.34732 28.43194 35005 ft 432 kts 116°
2026-05-07 09:52 5.32144 28.48634 35000 ft 431 kts 116°
2026-05-07 09:52 5.29581 28.54023 35003 ft 431 kts 116°
2026-05-07 09:53 5.26990 28.59471 35005 ft 431 kts 116°
2026-05-07 09:53 5.24418 28.64876 35009 ft 432 kts 116°
2026-05-07 09:54 5.21830 28.70312 35009 ft 431 kts 116°
2026-05-07 09:54 5.19252 28.75728 35010 ft 431 kts 116°
2026-05-07 09:55 5.16667 28.81155 35011 ft 431 kts 116°
2026-05-07 09:55 5.14098 28.86548 35010 ft 431 kts 116°
2026-05-07 09:56 5.11505 28.91988 35002 ft 430 kts 116°
2026-05-07 09:56 5.08938 28.97374 35001 ft 429 kts 116°
2026-05-07 09:57 5.06365 29.02770 35000 ft 431 kts 116°
2026-05-07 09:57 5.03779 29.08194 35001 ft 431 kts 116°
2026-05-07 09:58 5.01190 29.13622 35002 ft 430 kts 116°
2026-05-07 09:58 4.98631 29.18986 35003 ft 430 kts 116°
2026-05-07 09:59 4.96042 29.24413 35004 ft 430 kts 116°
2026-05-07 09:59 4.93477 29.29787 35007 ft 430 kts 116°
2026-05-07 10:00 4.90898 29.35189 35011 ft 429 kts 116°
2026-05-07 10:00 4.88305 29.40619 35012 ft 430 kts 116°
2026-05-07 10:01 4.85729 29.46016 35016 ft 430 kts 116°
2026-05-07 10:01 4.83162 29.51389 35021 ft 430 kts 116°
2026-05-07 10:02 4.80579 29.56794 35023 ft 430 kts 115°
2026-05-07 10:02 4.77994 29.62198 35026 ft 430 kts 115°
2026-05-07 10:03 4.75408 29.67605 35031 ft 430 kts 116°
2026-05-07 10:03 4.72840 29.72974 35034 ft 429 kts 115°
2026-05-07 10:04 4.70256 29.78375 35036 ft 428 kts 115°
2026-05-07 10:04 4.67676 29.83766 35034 ft 428 kts 115°
2026-05-07 10:05 4.65115 29.89116 35035 ft 428 kts 115°
2026-05-07 10:05 4.62529 29.94517 35034 ft 430 kts 115°
2026-05-07 10:06 4.59969 29.99863 35034 ft 429 kts 115°
2026-05-07 10:06 4.57383 30.05263 35034 ft 429 kts 115°
2026-05-07 10:07 4.54798 30.10659 35034 ft 430 kts 116°
2026-05-07 10:07 4.52231 30.16013 35032 ft 429 kts 116°
2026-05-07 10:08 4.49632 30.21436 35033 ft 430 kts 116°
2026-05-07 10:08 4.47056 30.26811 35035 ft 431 kts 116°
2026-05-07 10:09 4.44467 30.32210 35042 ft 431 kts 116°
2026-05-07 10:09 4.41849 30.37666 35047 ft 433 kts 116°
2026-05-07 10:10 4.39239 30.43104 35051 ft 435 kts 116°
2026-05-07 10:10 4.36618 30.48568 35049 ft 436 kts 116°
2026-05-07 10:11 4.33993 30.54039 35048 ft 436 kts 116°
2026-05-07 10:11 4.31376 30.59490 35046 ft 436 kts 116°
2026-05-07 10:12 4.28744 30.64972 35048 ft 437 kts 116°
2026-05-07 10:12 4.26108 30.70460 35051 ft 436 kts 116°
2026-05-07 10:13 4.23471 30.75951 35048 ft 437 kts 116°
2026-05-07 10:13 4.20851 30.81404 35053 ft 437 kts 116°
2026-05-07 10:14 4.18213 30.86894 35059 ft 437 kts 116°
2026-05-07 10:14 4.15584 30.92362 35066 ft 438 kts 116°
2026-05-07 10:15 4.12949 30.97842 35069 ft 437 kts 116°
2026-05-07 10:15 4.10322 31.03306 35070 ft 437 kts 116°
2026-05-07 10:16 4.07676 31.08809 35064 ft 437 kts 116°
2026-05-07 10:16 4.04978 31.14241 35059 ft 437 kts 120°
2026-05-07 10:17 4.01139 31.18885 35063 ft 435 kts 143°
2026-05-07 10:17 3.98606 31.20501 35062 ft 435 kts 154°
2026-05-07 10:17 3.95841 31.21717 35062 ft 434 kts 160°
2026-05-07 10:18 3.89971 31.22932 35065 ft 431 kts 181°
2026-05-07 10:18 3.83997 31.22295 35066 ft 431 kts 190°
2026-05-07 10:19 3.78060 31.21242 35069 ft 431 kts 191°
2026-05-07 10:19 3.72171 31.20157 35074 ft 431 kts 191°
2026-05-07 10:20 3.66240 31.19092 35076 ft 431 kts 191°
2026-05-07 10:20 3.60341 31.18059 35079 ft 431 kts 190°
2026-05-07 10:21 3.54419 31.17036 35075 ft 431 kts 191°
2026-05-07 10:21 3.48456 31.16011 35077 ft 431 kts 190°
2026-05-07 10:22 3.42557 31.14999 35080 ft 429 kts 190°
2026-05-07 10:22 3.36669 31.13991 35083 ft 429 kts 191°
2026-05-07 10:23 3.30793 31.12984 35082 ft 429 kts 190°
2026-05-07 10:23 3.24877 31.11971 35082 ft 429 kts 190°
2026-05-07 10:24 3.18984 31.10962 35079 ft 430 kts 190°
2026-05-07 10:24 3.13029 31.09943 35076 ft 431 kts 190°
2026-05-07 10:25 3.07103 31.08930 35066 ft 430 kts 190°
2026-05-07 10:25 3.01217 31.07923 35053 ft 430 kts 190°
2026-05-07 10:26 2.95289 31.06908 35065 ft 431 kts 190°
2026-05-07 10:26 2.89352 31.05892 35076 ft 430 kts 190°
2026-05-07 10:27 2.83447 31.04883 35085 ft 430 kts 190°
2026-05-07 10:27 2.77544 31.03873 35089 ft 430 kts 190°
2026-05-07 10:28 2.71613 31.02858 35093 ft 431 kts 190°
2026-05-07 10:28 2.65682 31.01844 35103 ft 431 kts 190°
2026-05-07 10:29 2.59757 31.00830 35111 ft 431 kts 190°
2026-05-07 10:29 2.53831 30.99815 35124 ft 431 kts 190°
2026-05-07 10:30 2.44961 30.98296 35141 ft 431 kts 190°
2026-05-07 10:30 2.39031 30.97282 35153 ft 432 kts 190°
2026-05-07 10:31 2.33078 30.96266 35165 ft 432 kts 190°
2026-05-07 10:31 2.27147 30.95254 35181 ft 432 kts 190°
2026-05-07 10:32 2.21201 30.94238 35181 ft 432 kts 190°
2026-05-07 10:32 2.15261 30.93221 35162 ft 432 kts 190°
2026-05-07 10:33 2.09317 30.92207 35148 ft 433 kts 190°
2026-05-07 10:33 2.03361 30.91190 35141 ft 432 kts 190°
2026-05-07 10:34 1.97430 30.90176 35143 ft 432 kts 190°
2026-05-07 10:34 1.91512 30.89163 35121 ft 431 kts 191°
2026-05-07 10:35 1.85575 30.88149 35099 ft 431 kts 191°
2026-05-07 10:35 1.79631 30.87133 35077 ft 431 kts 191°
2026-05-07 10:36 1.73689 30.86118 35055 ft 432 kts 190°
2026-05-07 10:36 1.67775 30.85112 35050 ft 432 kts 190°
2026-05-07 10:37 1.61814 30.84102 35045 ft 431 kts 190°
2026-05-07 10:37 1.55883 30.83096 35050 ft 432 kts 190°
2026-05-07 10:38 1.49979 30.82096 35045 ft 430 kts 190°
2026-05-07 10:38 1.44019 30.81085 35052 ft 432 kts 190°
2026-05-07 10:39 1.38113 30.80082 35054 ft 432 kts 190°
2026-05-07 10:39 1.32179 30.79074 35060 ft 431 kts 190°
2026-05-07 10:40 1.26253 30.78068 35061 ft 431 kts 190°
2026-05-07 10:40 1.20339 30.77063 35068 ft 431 kts 190°
2026-05-07 10:41 1.14402 30.76055 35070 ft 430 kts 190°
2026-05-07 10:41 1.08450 30.75045 35080 ft 431 kts 190°
2026-05-07 10:42 1.02525 30.74040 35085 ft 431 kts 190°
2026-05-07 10:42 0.96623 30.73039 35095 ft 431 kts 190°
2026-05-07 10:43 0.90658 30.72027 35108 ft 431 kts 190°
2026-05-07 10:43 0.84737 30.71020 35113 ft 431 kts 190°
2026-05-07 10:44 0.78824 30.70015 35118 ft 431 kts 190°
2026-05-07 10:44 0.72893 30.69007 35130 ft 431 kts 190°
2026-05-07 10:45 0.66954 30.67998 35135 ft 431 kts 190°
2026-05-07 10:45 0.61011 30.66984 35136 ft 431 kts 190°
2026-05-07 10:46 0.55088 30.65974 35138 ft 431 kts 190°
2026-05-07 10:46 0.49171 30.64965 35140 ft 430 kts 190°
2026-05-07 10:47 0.43268 30.63959 35142 ft 430 kts 190°
2026-05-07 10:47 0.37375 30.62954 35139 ft 430 kts 190°
2026-05-07 10:48 0.31458 30.61947 35140 ft 430 kts 190°
2026-05-07 10:48 0.25516 30.60934 35140 ft 430 kts 190°
2026-05-07 10:49 0.19612 30.59928 35138 ft 430 kts 190°
2026-05-07 10:49 0.13696 30.58921 35135 ft 430 kts 190°
2026-05-07 10:50 0.07797 30.57921 35134 ft 429 kts 190°
2026-05-07 10:50 0.01881 30.56921 35133 ft 430 kts 190°
2026-05-07 10:51 -0.03999 30.55927 35136 ft 429 kts 190°
2026-05-07 10:51 -0.09906 30.54930 35158 ft 430 kts 190°
2026-05-07 10:52 -0.15847 30.53926 35172 ft 430 kts 190°
2026-05-07 10:52 -0.21729 30.52931 35187 ft 429 kts 190°
2026-05-07 10:53 -0.27640 30.51930 35199 ft 428 kts 190°
2026-05-07 10:53 -0.33549 30.50931 35192 ft 429 kts 190°
2026-05-07 10:54 -0.39445 30.49932 35193 ft 429 kts 190°
2026-05-07 10:54 -0.45354 30.48933 35184 ft 429 kts 190°
2026-05-07 10:55 -0.51226 30.47939 35029 ft 426 kts 190°
2026-05-07 10:55 -0.54166 30.47442 34625 ft 421 kts 190°
2026-05-07 10:55 -0.57017 30.46959 34326 ft 411 kts 190°
2026-05-07 10:56 -0.59818 30.46486 33991 ft 413 kts 190°
2026-05-07 10:56 -0.62685 30.45999 33545 ft 420 kts 190°
2026-05-07 10:56 -0.65585 30.45508 33076 ft 417 kts 190°
2026-05-07 10:56 -0.68418 30.45028 32616 ft 412 kts 190°
2026-05-07 10:57 -0.71247 30.44549 32180 ft 407 kts 190°
2026-05-07 10:57 -0.74036 30.44077 31723 ft 402 kts 190°
2026-05-07 10:57 -0.76755 30.43617 31271 ft 399 kts 190°
2026-05-07 10:57 -0.79485 30.43155 30811 ft 395 kts 190°
2026-05-07 10:58 -0.82188 30.42696 30354 ft 391 kts 190°
2026-05-07 10:58 -0.84854 30.42244 29900 ft 387 kts 190°
2026-05-07 10:58 -0.87530 30.41789 29439 ft 384 kts 190°
2026-05-07 10:58 -0.90139 30.41345 28991 ft 380 kts 190°
2026-05-07 10:59 -0.92763 30.40900 28540 ft 377 kts 190°
2026-05-07 10:59 -0.95343 30.40461 28100 ft 374 kts 190°
2026-05-07 10:59 -0.97870 30.40032 27657 ft 371 kts 189°
2026-05-07 10:59 -1.00435 30.39597 27212 ft 368 kts 189°
2026-05-07 11:00 -1.02949 30.39169 26778 ft 365 kts 189°
2026-05-07 11:00 -1.05448 30.38702 26337 ft 362 kts 192°
2026-05-07 11:00 -1.07868 30.38000 25908 ft 362 kts 200°
2026-05-07 11:00 -1.10171 30.36937 25467 ft 367 kts 207°
2026-05-07 11:01 -1.12379 30.35654 25013 ft 367 kts 211°
2026-05-07 11:01 -1.14542 30.34281 24561 ft 364 kts 212°
2026-05-07 11:01 -1.16631 30.32915 24123 ft 362 kts 212°
2026-05-07 11:01 -1.18726 30.31540 23678 ft 359 kts 212°
2026-05-07 11:02 -1.20826 30.30169 23231 ft 356 kts 211°
2026-05-07 11:02 -1.22908 30.28820 22799 ft 353 kts 211°
2026-05-07 11:02 -1.24947 30.27508 22376 ft 351 kts 211°
2026-05-07 11:02 -1.26987 30.26200 21952 ft 348 kts 211°
2026-05-07 11:03 -1.29028 30.24895 21517 ft 347 kts 211°
2026-05-07 11:03 -1.31062 30.23598 21086 ft 345 kts 211°
2026-05-07 11:03 -1.33077 30.22313 20658 ft 344 kts 211°
2026-05-07 11:03 -1.35105 30.21021 20231 ft 342 kts 211°
2026-05-07 11:04 -1.37097 30.19751 19807 ft 341 kts 211°
2026-05-07 11:04 -1.39120 30.18463 19373 ft 340 kts 211°
2026-05-07 11:04 -1.41104 30.17199 18946 ft 339 kts 211°
2026-05-07 11:04 -1.43079 30.15940 18518 ft 338 kts 212°
2026-05-07 11:05 -1.45066 30.14673 18090 ft 338 kts 212°
2026-05-07 11:05 -1.47068 30.13396 17657 ft 337 kts 212°
2026-05-07 11:05 -1.49037 30.12141 17232 ft 336 kts 212°
2026-05-07 11:05 -1.51003 30.10887 16803 ft 336 kts 212°
2026-05-07 11:06 -1.52969 30.09634 16376 ft 335 kts 212°
2026-05-07 11:06 -1.54951 30.08373 15942 ft 334 kts 212°
2026-05-07 11:06 -1.56901 30.07131 15517 ft 333 kts 212°
2026-05-07 11:06 -1.58866 30.05878 15088 ft 332 kts 212°
2026-05-07 11:07 -1.60793 30.04650 14672 ft 331 kts 212°
2026-05-07 11:07 -1.62736 30.03411 14249 ft 330 kts 212°
2026-05-07 11:07 -1.64670 30.02179 13830 ft 329 kts 212°
2026-05-07 11:07 -1.66620 30.00936 13397 ft 328 kts 212°
2026-05-07 11:08 -1.68536 29.99716 12967 ft 327 kts 212°
2026-05-07 11:08 -1.70439 29.98501 12539 ft 325 kts 212°
2026-05-07 11:08 -1.72344 29.97285 12110 ft 323 kts 212°
2026-05-07 11:08 -1.74255 29.96066 11676 ft 321 kts 212°
2026-05-07 11:09 -1.76120 29.94875 11294 ft 316 kts 212°
2026-05-07 11:09 -1.77934 29.93714 11122 ft 304 kts 212°
2026-05-07 11:09 -1.79684 29.92592 11040 ft 290 kts 212°
2026-05-07 11:09 -1.81363 29.91515 10942 ft 278 kts 211°
2026-05-07 11:10 -1.83039 29.90623 10743 ft 269 kts 199°
2026-05-07 11:10 -1.84839 29.90158 10323 ft 267 kts 188°
2026-05-07 11:10 -1.86680 29.89916 9958 ft 265 kts 185°
2026-05-07 11:10 -1.87485 29.89816 9789 ft 262 kts 186°
2026-05-07 11:11 -1.89278 29.89650 9483 ft 250 kts 180°
2026-05-07 11:11 -1.90928 29.89860 9203 ft 234 kts 158°
2026-05-07 11:11 -1.92198 29.90787 8973 ft 220 kts 127°
2026-05-07 11:11 -1.92919 29.92089 8688 ft 213 kts 109°
2026-05-07 11:12 -1.93305 29.93499 8431 ft 207 kts 100°
2026-05-07 11:12 -1.93531 29.94894 8194 ft 200 kts 98°
2026-05-07 11:12 -1.93742 29.96239 7970 ft 193 kts 99°
2026-05-07 11:12 -1.93962 29.97534 7752 ft 188 kts 100°
2026-05-07 11:13 -1.94196 29.98824 7545 ft 186 kts 102°
2026-05-07 11:13 -1.94328 29.99568 7422 ft 185 kts 101°
2026-05-07 11:13 -1.94532 30.00755 7220 ft 183 kts 101°
2026-05-07 11:13 -1.94749 30.02034 7046 ft 186 kts 101°
2026-05-07 11:14 -1.94967 30.03291 6770 ft 185 kts 101°
2026-05-07 11:14 -1.95189 30.04528 6527 ft 172 kts 101°
2026-05-07 11:14 -1.95399 30.05695 6276 ft 169 kts 102°
2026-05-07 11:14 -1.95607 30.06909 6069 ft 165 kts 102°
2026-05-07 11:15 -1.95798 30.08085 5812 ft 157 kts 100°
2026-05-07 11:15 -1.96006 30.09199 5605 ft 157 kts 101°
2026-05-07 11:15 -1.96218 30.10334 5378 ft 156 kts 99°
2026-05-07 11:15 -1.96422 30.11466 5129 ft 156 kts 102°
2026-05-07 11:16 -1.96617 30.12549 4924 ft 154 kts 100°
2026-05-07 11:16 -1.96793 30.13547 4888 ft 126 kts 100°
2026-05-07 11:16 -1.96909 30.14212 4876 ft 70 kts 102°
2026-05-07 11:16 -1.96964 30.14517 4870 ft 19 kts 99°
2026-05-07 11:17 -1.96990 30.14583 4869 ft 8 kts 94°
2026-05-07 11:17 -1.96963 30.14539 4870 ft 16 kts 272°
2026-05-07 11:17 -1.96938 30.14356 4873 ft 28 kts 277°
2026-05-07 11:17 -1.96905 30.14150 4877 ft 27 kts 280°
2026-05-07 11:18 -1.96869 30.13961 4882 ft 25 kts 281°
2026-05-07 11:18 -1.96836 30.13778 4887 ft 23 kts 279°
2026-05-07 11:18 -1.96807 30.13604 4887 ft 23 kts 280°
2026-05-07 11:18 -1.96775 30.13431 4888 ft 20 kts 280°
2026-05-07 11:19 -1.96743 30.13358 4887 ft 9 kts 330°
2026-05-07 11:19 -1.96678 30.13360 4889 ft 10 kts 11°
2026-05-07 11:19 -1.96606 30.13395 4892 ft 13 kts 67°
2026-05-07 11:19 -1.96582 30.13446 4892 ft 8 kts 358°
2026-05-07 11:20 -1.96535 30.13419 4893 ft 2 kts 326°
2026-05-07 11:20 -1.96533 30.13418 4893 ft 0 kts 326°